Погода в Сабирабаде

Азербайджан     39°59′25″N   48°27′47″E
темп.,
°C
ветер,
м/с
пор.,
м/с
влажн.,
%
обл.,
%
осадки,
мм/ч
давл.,
гПа
погр.,
м
22 января, сб
сб2201:00+1з45545 0.0 102384
04:00−1з35625 0.0 102280
07:00−2зюз35730 0.0 102176
10:00+1зюз46595 0.0 1021223
13:00+6з45375 0.0 1019622
16:00+8зюз363714 0.0 1017652
19:00+4ююв3354100 0.0 101737
22:00+2ю226429 0.0 101711
23 января, вс
вс2301:00+1с11655 0.0 101610
04:00+1с11655 0.0 101610
07:00+1з2355100 0.0 101629
10:00+3зюз37495 0.0 1017215
13:00+7зюз23420 0.0 1015519
16:00+8зюз23380 0.0 1014572
19:00+5ссз22490 0.0 101510
22:00+4з22520 0.0 101510
24 января, пн
пн2401:00+2з22590 0.0 101510
04:00+1з22660 0.0 101515
07:00+1з22670 0.0 101611
10:00+5зсз23510 0.0 1017172
13:00+9з34390 0.0 1017513
16:00+11з34310 0.0 1016686
19:00+7зюз23370 0.0 101811
22:00+5юз22440 0.0 101913
25 января, вт
вт2501:00+3ссз11580 0.0 102010
04:00+3юз33590 0.0 102114
07:00+2юз33610 0.0 102229
10:00+5зюз23540 0.0 1024136
13:00+9ссз11380 0.0 1024494
16:00+11з12330 0.0 1023567
19:00+8ссв22450 0.0 102510
22:00+5вюв48670 0.0 1026140
26 января, ср
ср2601:00+4вюв499068 0.0 1026175
04:00+4вюв368898 0.0 1024103
07:00+3в348846 0.0 102351
10:00+5ссв2379100 0.1 102288
13:00+5ссз3475100 0.3 1020153
16:00+7сз3361100 0.3 1018205
19:00+5зсз337862 0.0 101731
22:00+3зсз23885 0.0 101521